Location: Ballingbuur
(53.0000°N, 5.7667°E)
Time: 06:48:59
(UTC+00:00)

NOSS 3-4 (C) - Pass Details

Date: 29 November 2020
Orbit: 878 x 1334 km, 63.4° (Epoch: 22 January)

Event Time Altitude Azimuth Distance (km) Brightness Sun altitude
Exits shadow 04:00:59 36° 174° (S) 1,405 4.3 -29.6°
Maximum altitude 04:02:58 50° 125° (SE) 1,165 4.1 -29.3°
Drops below altitude 10° 04:09:03 10° 52° (NE) 2,748 6.5 -28.4°
Sets 04:11:49 0° 47° (NE) 3,765 7.2 -28.0°
